Osan AB, South Korea

6:28 PM KST on July 21, 2017 (GMT +0900)
Osan Air Base

Weather History for RKSO - February, 2014

Change the Weather History Date:

Sunday, February 2, 2014

  Actual Average Record
Temperature  
Mean Temperature 40 °F -  
Max Temperature 44 °F 42 °F 50 °F (2009)
Min Temperature 36 °F 21 °F 1 °F (2012)
Degree Days  
Heating Degree Days 24    
Moisture  
Dew Point 42 °F    
Average Humidity 99    
Maximum Humidity 100    
Minimum Humidity 93    
Precipitation  
Precipitation 0.00 in - - ()
Sea Level Pressure  
Sea Level Pressure 29.83 in    
Wind  
Wind Speed 2 mph ()    
Max Wind Speed 7 mph    
Max Gust Speed -    
Visibility 2.5 miles    
Events Fog    
Averages and records for this station are not official NWS values.
T = Trace of Precipitation, MM = Missing Value Source: Averaged Metar Reports

Daily Weather History Graph

Daily Weather History Graph

Search for Another Location

Airport or City:

Trip Planner

Search our weather history database for the weather conditions in past years. The results will help you decide how hot, cold, wet, or windy it might be!

Date:

Astronomy

Feb. 02, 2014 Rise Set
Actual Time 7:34 AM KST 5:57 PM KST
Civil Twilight 7:06 AM KST 6:24 PM KST
Nautical Twilight 6:35 AM KST 6:55 PM KST
Astronomical Twilight 6:05 AM KST 7:26 PM KST
Moon 8:43 AM KST (2/2) 8:54 PM KST (2/2)
Length of Visible Light 11h 17m
Length of Day
10h 23m
Waxing Crescent, 7% of the Moon is Illuminated
Feb 2
Waxing Crescent
Feb 7
First Quarter
Feb 15
Full
Feb 23
Last Quarter
Mar 1
New

Hourly Weather History & Observations

Time (KST) Temp. Windchill Dew Point Humidity Pressure Visibility Wind Dir Wind Speed Gust Speed Precip Events Conditions
12:08 AM 41.0 °F - 41.0 °F 100% 29.81 in 1.8 mi Calm Calm - N/A   Overcast
12:18 AM 42.8 °F 41.1 °F 41.0 °F 93% 29.79 in 1.5 mi ESE 3.5 mph - N/A   Overcast
12:28 AM 41.0 °F - 41.0 °F 100% 29.79 in 1.0 mi Calm Calm - N/A   Overcast
12:38 AM 42.8 °F - 41.0 °F 93% 29.79 in 1.2 mi Calm Calm - N/A   Overcast
12:39 AM 42.8 °F - 41.0 °F 93% 29.79 in 1.0 mi Calm Calm - N/A   Mist
12:49 AM 41.0 °F 39.0 °F 41.0 °F 100% 29.80 in 0.8 mi NW 3.5 mph - N/A   Mist
12:58 AM 41.9 °F 40.0 °F 41.5 °F 99% 29.81 in 0.8 mi NNW 3.5 mph - N/A   Mist
1:06 AM 41.0 °F - 41.0 °F 100% 29.80 in 0.5 mi NNW 1.2 mph - N/A Fog Fog
1:16 AM 41.0 °F - 41.0 °F 100% 29.79 in 0.5 mi Calm Calm - N/A Fog Light Drizzle
1:25 AM 41.0 °F - 41.0 °F 100% 29.79 in 0.5 mi Calm Calm - N/A Fog Fog
1:35 AM 42.8 °F - 41.0 °F 93% 29.80 in 0.5 mi Calm Calm - N/A Fog Fog
1:45 AM 41.0 °F - 41.0 °F 100% 29.79 in 0.2 mi Calm Calm - N/A Fog Fog
1:58 AM 41.7 °F - 41.5 °F 99% 29.81 in 0.2 mi Calm Calm - N/A Fog Fog
2:08 AM 41.0 °F - 41.0 °F 100% 29.80 in 0.5 mi Calm Calm - N/A Fog Fog
2:28 AM 41.0 °F - 41.0 °F 100% 29.80 in 0.2 mi ENE 2.3 mph - N/A Fog Fog
2:31 AM 41.0 °F - 41.0 °F 100% 29.81 in 0.2 mi NNE 2.3 mph - N/A Fog Fog
2:51 AM 41.0 °F - 41.0 °F 100% 29.80 in 0.2 mi Calm Calm - N/A Fog Fog
2:58 AM 41.9 °F - 41.5 °F 99% 29.81 in 0.2 mi Calm Calm - N/A Fog Fog
3:38 AM 41.0 °F - 41.0 °F 100% 29.79 in 0.2 mi Calm Calm - N/A Fog Fog
3:48 AM 41.0 °F - 41.0 °F 100% 29.80 in 0.2 mi Calm Calm - N/A Fog Fog
3:58 AM 41.5 °F 39.6 °F 41.4 °F 99% 29.81 in 0.2 mi NNW 3.5 mph - N/A Fog Fog
4:58 AM 41.7 °F - 41.4 °F 99% 29.81 in 0.2 mi Calm Calm - N/A Fog Fog
5:48 AM 41.0 °F - 41.0 °F 100% 29.80 in 0.2 mi Calm Calm - N/A Fog Fog
5:58 AM 41.2 °F - 41.0 °F 99% 29.82 in 0.5 mi Calm Calm - N/A Fog Fog
6:08 AM 41.0 °F - 41.0 °F 100% 29.81 in 0.2 mi Calm Calm - N/A Fog Fog
6:18 AM 41.0 °F - 41.0 °F 100% 29.80 in 0.5 mi SE 2.3 mph - N/A Fog Fog
6:38 AM 41.0 °F - 41.0 °F 100% 29.81 in 0.2 mi Calm Calm - N/A Fog Fog
6:58 AM 40.8 °F - 40.5 °F 99% 29.82 in 0.2 mi Calm Calm - N/A Fog Fog
7:38 AM 41.0 °F - 41.0 °F 100% 29.83 in 0.2 mi Calm Calm - N/A Fog Fog
7:58 AM 40.8 °F - 40.6 °F 99% 29.84 in 0.2 mi Calm Calm - N/A Fog Fog
8:58 AM 41.9 °F - 41.9 °F 100% 29.85 in 0.2 mi Calm Calm - N/A Fog Fog
9:58 AM 42.8 °F - 42.8 °F 100% 29.85 in 0.2 mi NW 1.2 mph - N/A Fog Fog
10:38 AM 42.8 °F 41.1 °F 42.8 °F 100% 29.86 in 0.2 mi WNW 3.5 mph - N/A Fog Fog
10:48 AM 42.8 °F 38.6 °F 42.8 °F 100% 29.87 in 0.8 mi WNW 6.9 mph - N/A   Mist
10:58 AM 43.2 °F 39.7 °F 43.2 °F 100% 29.88 in 1.5 mi WNW 5.8 mph - N/A   Overcast
11:08 AM 42.8 °F 39.3 °F 42.8 °F 100% 29.87 in 2.0 mi WNW 5.8 mph - N/A   Overcast
11:18 AM 42.8 °F 38.6 °F 42.8 °F 100% 29.88 in 2.5 mi WNW 6.9 mph - N/A   Overcast
11:38 AM 42.8 °F 39.3 °F 42.8 °F 100% 29.88 in 1.8 mi WNW 5.8 mph - N/A   Overcast
11:58 AM 42.6 °F 38.4 °F 42.6 °F 100% 29.88 in 1.5 mi WNW 6.9 mph - N/A   Overcast
12:28 PM 42.8 °F 40.1 °F 42.8 °F 100% 29.85 in 2.0 mi West 4.6 mph - N/A   Overcast
12:38 PM 42.8 °F 40.1 °F 42.8 °F 100% 29.84 in 2.5 mi West 4.6 mph - N/A   Overcast
12:48 PM 42.8 °F 41.1 °F 42.8 °F 100% 29.84 in 3.0 mi West 3.5 mph - N/A   Overcast
12:58 PM 43.3 °F 39.9 °F 43.3 °F 100% 29.84 in 3.0 mi West 5.8 mph - N/A   Overcast
1:18 PM 42.8 °F 40.1 °F 42.8 °F 100% 29.83 in 2.0 mi West 4.6 mph - N/A   Overcast
1:28 PM 42.8 °F 41.1 °F 42.8 °F 100% 29.82 in 2.5 mi West 3.5 mph - N/A   Overcast
1:38 PM 42.8 °F 40.1 °F 42.8 °F 100% 29.83 in 2.0 mi WNW 4.6 mph - N/A   Overcast
1:58 PM 43.2 °F 39.7 °F 43.2 °F 100% 29.83 in 3.0 mi WNW 5.8 mph - N/A   Overcast
2:08 PM 42.8 °F 41.1 °F 42.8 °F 100% 29.82 in 2.5 mi West 3.5 mph - N/A   Overcast
2:18 PM 42.8 °F 40.1 °F 42.8 °F 100% 29.82 in 3.0 mi WNW 4.6 mph - N/A   Overcast
2:38 PM 42.8 °F 41.1 °F 42.8 °F 100% 29.81 in 4.0 mi WSW 3.5 mph - N/A   Overcast
2:48 PM 42.8 °F 41.1 °F 42.8 °F 100% 29.81 in 4.0 mi SW 3.5 mph - N/A   Overcast
2:58 PM 43.7 °F 42.1 °F 43.7 °F 100% 29.82 in 5.0 mi West 3.5 mph - N/A   Overcast
3:38 PM 44.6 °F 41.4 °F 44.6 °F 100% 29.81 in 7.0 mi West 5.8 mph - N/A   Mostly Cloudy
3:58 PM 43.9 °F 40.5 °F 43.9 °F 100% 29.83 in 7.0 mi West 5.8 mph - N/A   Partly Cloudy
4:58 PM 43.9 °F 41.3 °F 43.9 °F 100% 29.82 in 7.0 mi WNW 4.6 mph - N/A   Clear
5:08 PM 44.6 °F 43.1 °F 44.6 °F 100% 29.81 in 7.0 mi WSW 3.5 mph - N/A   Partly Cloudy
5:28 PM 44.6 °F 42.2 °F 42.8 °F 93% 29.81 in 6.0 mi SW 4.6 mph - N/A   Mostly Cloudy
5:38 PM 42.8 °F 39.3 °F 42.8 °F 100% 29.81 in 6.0 mi SW 5.8 mph - N/A   Scattered Clouds
5:58 PM 43.2 °F 40.5 °F 43.0 °F 99% 29.81 in 7.0 mi WSW 4.6 mph - N/A   Partly Cloudy
6:48 PM 42.8 °F 39.3 °F 41.0 °F 93% 29.84 in 7.0 mi West 5.8 mph - N/A   Mostly Cloudy
6:58 PM 41.9 °F 38.2 °F 41.5 °F 99% 29.85 in 7.0 mi WNW 5.8 mph - N/A   Mostly Cloudy
7:28 PM 41.0 °F 37.1 °F 41.0 °F 100% 29.84 in 7.0 mi WNW 5.8 mph - N/A   Overcast
7:58 PM 41.4 °F 38.4 °F 40.6 °F 97% 29.85 in 7.0 mi NNW 4.6 mph - N/A   Overcast
8:08 PM 41.0 °F 39.0 °F 41.0 °F 100% 29.83 in 7.0 mi NW 3.5 mph - N/A   Overcast
8:28 PM 41.0 °F 36.4 °F 41.0 °F 100% 29.84 in 3.0 mi NW 6.9 mph - N/A   Overcast
8:38 PM 41.0 °F 37.1 °F 41.0 °F 100% 29.84 in 2.0 mi NW 5.8 mph - N/A   Overcast
8:48 PM 41.0 °F 37.1 °F 41.0 °F 100% 29.84 in 1.8 mi NNW 5.8 mph - N/A   Overcast
8:58 PM 40.8 °F 37.8 °F 40.6 °F 99% 29.85 in 2.0 mi Variable 4.6 mph - N/A   Overcast
9:18 PM 41.0 °F - 41.0 °F 100% 29.85 in 2.5 mi Calm Calm - N/A   Overcast
9:38 PM 41.0 °F - 41.0 °F 100% 29.85 in 3.0 mi Calm Calm - N/A   Overcast
9:48 PM 41.0 °F - 41.0 °F 100% 29.86 in 3.0 mi Calm Calm - N/A   Mostly Cloudy
9:58 PM 40.5 °F - 40.3 °F 99% 29.87 in 4.0 mi Calm Calm - N/A   Scattered Clouds
10:28 PM 39.2 °F - 39.2 °F 100% 29.87 in 4.0 mi NW 2.3 mph - N/A   Mostly Cloudy
10:38 PM 39.2 °F - 39.2 °F 100% 29.87 in 4.0 mi WNW 2.3 mph - N/A   Overcast
10:58 PM 39.0 °F - 38.8 °F 99% 29.89 in 5.0 mi West 2.3 mph - N/A   Mostly Cloudy
11:08 PM 39.2 °F - 37.4 °F 93% 29.87 in 4.0 mi West 2.3 mph - N/A   Scattered Clouds
11:48 PM 37.4 °F 33.8 °F 35.6 °F 93% 29.89 in 5.0 mi WNW 4.6 mph - N/A   Clear
11:58 PM 36.9 °F 34.3 °F 36.5 °F 99% 29.90 in 5.0 mi WNW 3.5 mph - N/A   Clear